Home   Weather   Solothurn   Past weeks

Flag for Switzerland Past Weather in Solothurn, Solothurn, Switzerland — Yesterday and Last 2 Weeks

Now
38 °F

Chilly.


Feels Like: 38 °F
Forecast: 25 / 55 °F
Wind: 1 mph from Northeast

Location: Grenchen

Current Time: Apr 29, 2017 at 12:16:06 am

Latest Report: Apr 28, 2017 at 11:00 pm


Visibility: N/A

Pressure: 30.16 "Hg

Humidity: 93%

Dew Point: 36 °F

Location of SolothurnLocation

Past Weather in Solothurn — Graph

°F

Solothurn Temperature Yesterday

Maximum temperature yesterday: 47 °F (at 7:00 pm)
Minimum temperature yesterday: 37 °F (at 3:00 am)
Average temperature yesterday: 42 °F

High & Low Weather Summary for the Past Weeks

 TemperatureHumidityPressure
High69 °F (Apr 24, 5:00 pm)99% (Apr 25, 7:00 am)30.57 "Hg (Apr 25, 7:00 am)
Low25 °F (Apr 21, 6:00 am)23% (Apr 21, 5:00 pm)29.74 "Hg (Apr 25, 11:00 pm)
Average45 °F70%30.15 "Hg
* Reported Apr 13 10:00 pm — Apr 28 10:00 pm, Solothurn, Weather by CustomWeather, © 2017

Note: Actual official high and low records may vary slightly from our data, if they occured in-between our weather recording intervals... More about our weather records

Advertising

Solothurn Weather History for the Previous 24 Hours

Scroll right to see more
 ConditionsComfort  
Time TempWeatherWind HumidityBarometerVisibility
10:00 pm
Fri, Apr 28
39 °FChilly.5 mph92%30.15 "HgN/A
9:00 pm41 °FQuite cool.6 mph82%30.12 "HgN/A
8:00 pm44 °FQuite cool.5 mph70%30.08 "HgN/A
7:00 pm47 °FCool.10 mph62%30.06 "HgN/A
6:00 pm46 °FCool.9 mph60%30.05 "HgN/A
5:00 pm46 °FCool.3 mph58%30.05 "HgN/A
4:00 pm44 °FQuite cool.5 mph63%30.06 "HgN/A
3:00 pm45 °FCool.14 mph62%30.05 "HgN/A
2:00 pm46 °FCool.3 mph54%30.02 "HgN/A
1:00 pm46 °FCool.8 mph57%30.02 "HgN/A
12:00 pm46 °FCool.2 mph59%30.01 "HgN/A
11:00 am42 °FQuite cool.7 mph81%30.00 "HgN/A
10:00 am41 °FQuite cool.6 mph83%29.98 "HgN/A
9:00 am40 °FChilly.1 mph84%29.97 "HgN/A
8:00 am38 °FChilly.6 mph93%29.96 "HgN/A
7:00 am40 °FChilly.2 mph82%29.94 "HgN/A
6:00 am39 °FChilly.3 mph85%29.93 "HgN/A
5:00 am38 °FChilly.3 mph92%29.93 "HgN/A
4:00 am37 °FChilly.2 mph94%29.93 "HgN/A
3:00 am37 °FChilly.3 mph95%29.94 "HgN/A
2:00 am37 °FChilly.1 mph94%29.96 "HgN/A
1:00 am38 °FChilly.2 mph94%29.97 "HgN/A
12:00 am38 °FChilly.1 mph93%29.99 "HgN/A
Weather by CustomWeather, © 2017

See weather overviewHow to use our weather pages